TimeAKDT,TemperatureF,Dew PointF,Humidity,Sea Level PressureIn,VisibilityMPH,Wind Direction,Wind SpeedMPH,Gust SpeedMPH,PrecipitationIn,Events,Conditions,WindDirDegrees,DateUTC
12:16 AM,33.8,24.8,70,30.27,10.0,SE,5.8,-,N/A,,Clear,140,2013-04-20 08:16:00
12:36 AM,33.8,24.8,70,30.28,10.0,SSE,6.9,-,N/A,,Clear,150,2013-04-20 08:36:00
12:56 AM,33.8,24.8,70,30.28,10.0,SSE,5.8,-,N/A,,Clear,150,2013-04-20 08:56:00
1:16 AM,33.8,24.8,70,30.29,10.0,SSE,5.8,-,N/A,,Clear,150,2013-04-20 09:16:00
1:36 AM,33.8,24.8,70,30.29,10.0,SE,5.8,-,N/A,,Clear,130,2013-04-20 09:36:00
1:56 AM,32.0,24.8,75,30.30,10.0,SSE,6.9,-,N/A,,Clear,150,2013-04-20 09:56:00
2:16 AM,32.0,24.8,75,30.30,10.0,SE,8.1,-,N/A,,Clear,140,2013-04-20 10:16:00
2:36 AM,32.0,24.8,75,30.31,10.0,SSE,5.8,-,N/A,,Clear,150,2013-04-20 10:36:00
2:56 AM,32.0,24.8,75,30.31,10.0,SSE,6.9,-,N/A,,Clear,150,2013-04-20 10:56:00
3:16 AM,30.2,24.8,80,30.32,10.0,SE,5.8,-,N/A,,Clear,140,2013-04-20 11:16:00
3:36 AM,30.2,23.0,75,30.32,10.0,SSE,4.6,-,N/A,,Clear,150,2013-04-20 11:36:00
3:56 AM,30.2,24.8,80,30.33,10.0,SE,5.8,-,N/A,,Clear,140,2013-04-20 11:56:00
4:16 AM,30.2,24.8,80,30.33,10.0,SSE,6.9,-,N/A,,Clear,150,2013-04-20 12:16:00
4:36 AM,30.2,24.8,80,30.34,10.0,SE,5.8,-,N/A,,Clear,140,2013-04-20 12:36:00
4:56 AM,30.2,24.8,80,30.34,10.0,SE,5.8,-,N/A,,Clear,140,2013-04-20 12:56:00
5:16 AM,30.2,24.8,80,30.34,10.0,SE,5.8,-,N/A,,Clear,140,2013-04-20 13:16:00
5:36 AM,30.2,24.8,80,30.34,10.0,SE,5.8,-,N/A,,Clear,130,2013-04-20 13:36:00
5:56 AM,30.2,26.6,86,30.35,10.0,SE,4.6,-,N/A,,Clear,130,2013-04-20 13:56:00
6:16 AM,30.2,24.8,80,30.35,10.0,SE,3.5,-,N/A,,Clear,140,2013-04-20 14:16:00
6:36 AM,30.2,26.6,86,30.35,10.0,SE,4.6,-,N/A,,Clear,140,2013-04-20 14:36:00
6:56 AM,32.0,26.6,80,30.35,10.0,SE,5.8,-,N/A,,Clear,130,2013-04-20 14:56:00
7:16 AM,33.8,26.6,75,30.35,10.0,ESE,3.5,-,N/A,,Clear,110,2013-04-20 15:16:00
7:36 AM,33.8,26.6,75,30.36,10.0,East,4.6,-,N/A,,Clear,90,2013-04-20 15:36:00
7:56 AM,33.8,26.6,75,30.36,10.0,Calm,Calm,-,N/A,,Clear,0,2013-04-20 15:56:00
8:16 AM,35.6,28.4,75,30.36,10.0,Calm,Calm,-,N/A,,Clear,0,2013-04-20 16:16:00
8:36 AM,35.6,28.4,75,30.37,10.0,Calm,Calm,-,N/A,,Clear,0,2013-04-20 16:36:00
8:56 AM,35.6,26.6,70,30.36,10.0,Calm,Calm,-,N/A,,Clear,0,2013-04-20 16:56:00
9:16 AM,37.4,26.6,65,30.37,10.0,NNW,5.8,-,N/A,,Clear,340,2013-04-20 17:16:00
9:36 AM,37.4,26.6,65,30.37,10.0,NNW,4.6,-,N/A,,Clear,340,2013-04-20 17:36:00
9:56 AM,37.4,26.6,65,30.38,10.0,NW,4.6,-,N/A,,Clear,320,2013-04-20 17:56:00
10:16 AM,39.2,24.8,56,30.38,10.0,Calm,Calm,-,N/A,,Clear,0,2013-04-20 18:16:00
10:36 AM,41.0,23.0,49,30.38,10.0,Calm,Calm,-,N/A,,Clear,0,2013-04-20 18:36:00
10:56 AM,42.8,21.2,42,30.38,10.0,NNW,4.6,-,N/A,,Clear,340,2013-04-20 18:56:00
11:16 AM,42.8,21.2,42,30.38,10.0,NW,5.8,-,N/A,,Clear,320,2013-04-20 19:16:00
11:36 AM,42.8,19.4,39,30.39,10.0,North,4.6,-,N/A,,Clear,350,2013-04-20 19:36:00
11:56 AM,44.6,19.4,37,30.39,10.0,NNW,6.9,-,N/A,,Clear,330,2013-04-20 19:56:00
12:16 PM,44.6,17.6,34,30.39,10.0,NNW,6.9,-,N/A,,Clear,330,2013-04-20 20:16:00
12:36 PM,44.6,17.6,34,30.39,10.0,NNW,5.8,-,N/A,,Clear,340,2013-04-20 20:36:00
12:56 PM,44.6,17.6,34,30.39,10.0,NE,4.6,-,N/A,,Partly Cloudy,40,2013-04-20 20:56:00
1:16 PM,44.6,17.6,34,30.39,10.0,ESE,3.5,-,N/A,,Partly Cloudy,110,2013-04-20 21:16:00
1:36 PM,44.6,15.8,31,30.39,10.0,East,3.5,-,N/A,,Partly Cloudy,80,2013-04-20 21:36:00
1:56 PM,46.4,17.6,32,30.39,10.0,East,3.5,-,N/A,,Partly Cloudy,80,2013-04-20 21:56:00
2:16 PM,46.4,19.4,34,30.39,10.0,ENE,10.4,-,N/A,,Partly Cloudy,70,2013-04-20 22:16:00
2:36 PM,46.4,17.6,32,30.39,10.0,NE,6.9,-,N/A,,Partly Cloudy,50,2013-04-20 22:36:00
2:56 PM,46.4,17.6,32,30.39,10.0,ENE,9.2,-,N/A,,Partly Cloudy,70,2013-04-20 22:56:00
3:16 PM,46.4,15.8,29,30.39,10.0,East,8.1,-,N/A,,Clear,80,2013-04-20 23:16:00
3:36 PM,46.4,17.6,32,30.39,10.0,East,5.8,-,N/A,,Clear,90,2013-04-20 23:36:00
3:56 PM,46.4,17.6,32,30.39,10.0,ENE,9.2,-,N/A,,Clear,70,2013-04-20 23:56:00
4:16 PM,46.4,19.4,34,30.39,10.0,NE,8.1,-,N/A,,Clear,50,2013-04-21 00:16:00
4:36 PM,46.4,17.6,32,30.39,10.0,ENE,10.4,-,N/A,,Clear,60,2013-04-21 00:36:00
4:56 PM,46.4,19.4,34,30.39,10.0,NE,8.1,-,N/A,,Clear,50,2013-04-21 00:56:00
5:16 PM,46.4,17.6,32,30.39,10.0,ENE,8.1,-,N/A,,Clear,60,2013-04-21 01:16:00
5:36 PM,46.4,17.6,32,30.39,10.0,ENE,8.1,-,N/A,,Clear,70,2013-04-21 01:36:00
5:56 PM,44.6,17.6,34,30.39,10.0,ENE,9.2,-,N/A,,Clear,60,2013-04-21 01:56:00
6:16 PM,44.6,17.6,34,30.39,10.0,NE,8.1,-,N/A,,Clear,50,2013-04-21 02:16:00
6:36 PM,44.6,17.6,34,30.39,10.0,NE,9.2,-,N/A,,Clear,50,2013-04-21 02:36:00
6:56 PM,44.6,17.6,34,30.40,10.0,ENE,9.2,-,N/A,,Clear,70,2013-04-21 02:56:00
7:16 PM,44.6,17.6,34,30.39,10.0,ENE,10.4,-,N/A,,Clear,60,2013-04-21 03:16:00
7:36 PM,42.8,17.6,36,30.40,10.0,ENE,9.2,-,N/A,,Clear,60,2013-04-21 03:36:00
7:56 PM,42.8,17.6,36,30.40,10.0,ENE,10.4,-,N/A,,Clear,70,2013-04-21 03:56:00
8:16 PM,42.8,17.6,36,30.41,10.0,ENE,6.9,-,N/A,,Clear,70,2013-04-21 04:16:00
8:36 PM,42.8,15.8,34,30.41,10.0,East,5.8,-,N/A,,Clear,90,2013-04-21 04:36:00
8:56 PM,39.2,15.8,39,30.42,10.0,SE,3.5,-,N/A,,Clear,140,2013-04-21 04:56:00
9:16 PM,39.2,15.8,39,30.42,10.0,SSE,5.8,-,N/A,,Clear,150,2013-04-21 05:16:00
9:36 PM,37.4,15.8,41,30.43,10.0,SE,4.6,-,N/A,,Clear,140,2013-04-21 05:36:00
9:56 PM,35.6,15.8,44,30.43,10.0,SE,5.8,-,N/A,,Clear,130,2013-04-21 05:56:00
10:16 PM,35.6,17.6,48,30.43,10.0,SE,6.9,-,N/A,,Clear,130,2013-04-21 06:16:00
10:36 PM,35.6,15.8,44,30.43,10.0,SSE,5.8,-,N/A,,Clear,150,2013-04-21 06:36:00
10:56 PM,33.8,15.8,48,30.43,10.0,SSE,4.6,-,N/A,,Clear,150,2013-04-21 06:56:00
11:16 PM,35.6,15.8,44,30.44,10.0,SSE,4.6,-,N/A,,Clear,150,2013-04-21 07:16:00
11:36 PM,33.8,19.4,56,30.44,10.0,SSE,8.1,-,N/A,,Clear,150,2013-04-21 07:36:00
11:56 PM,35.6,19.4,52,30.44,10.0,SE,6.9,-,N/A,,Clear,130,2013-04-21 07:56:00